FW3016 Weather Reports


time (UTC)temp
F
wind
direction
speed
knots
gust
knots
rain 1hr
in
rain 24hr
in
rain mn
in
humidity
%
barometer
mb
20260906191611 107 292 2.6 7.0 0.00 0.00 0.00 37 1010.7
20260906190057 108 188 3.5 6.1 0.00 0.00 0.00 33 1010.9
20260906184503 107 286 2.6 6.1 0.00 0.00 0.00 37 1011.0
20260906183102 107 136 3.5 6.1 0.00 0.00 0.00 35 1011.2
20260906181540 107 102 0.9 3.5 0.00 0.00 0.00 35 1011.6
20260906180027 104 183 0.9 4.3 0.00 0.00 0.00 37 1012.1
20260906174526 106 323 0.9 4.3 0.00 0.00 0.00 37 1012.3
20260906173024 103 263 1.7 3.5 0.00 0.00 0.00 41 1012.5
20260906171524 102 171 0.9 4.3 0.00 0.00 0.00 42 1012.7
20260906170115 105 229 0.9 3.5 0.00 0.00 0.00 40 1012.9
20260906164525 103 269 1.7 7.0 0.00 0.00 0.00 42 1013.1
20260906163029 102 198 0.9 5.2 0.00 0.00 0.00 43 1013.2
20260906161517 102 302 2.6 4.3 0.00 0.00 0.00 45 1013.2
20260906160039 101 301 0.0 4.3 0.00 0.00 0.00 46 1013.3
20260906154627 101 292 0.9 4.3 0.00 0.00 0.00 45 1013.2
20260906153037 99 288 0.9 4.3 0.00 0.00 0.00 48 1013.2
20260906151522 97 277 0.0 3.5 0.00 0.00 0.00 54 1013.1
20260906150024 95 280 0.9 2.6 0.00 0.00 0.00 56 1013.3
20260906144512 92 269 0.9 3.5 0.00 0.00 0.00 58 1013.2
20260906143041 90 196 0.0 2.6 0.00 0.00 0.00 62 1013.4
20260906141632 88 189 0.0 3.5 0.00 0.00 0.00 65 1013.2
20260906140051 85 243 0.9 2.6 0.00 0.00 0.00 70 1013.0
20260906134503 83 131 0.0 1.7 0.00 0.00 0.00 74 1013.1
20260906133103 82 126 0.9 2.6 0.00 0.00 0.00 75 1013.0
20260906131556 80 115 0.0 1.7 0.00 0.00 0.00 79 1013.0
20260906130104 78 115 0.0 1.7 0.00 0.00 0.00 85 1012.8
20260906124556 75 115 0.0 0.0 0.00 0.00 0.00 90 1012.8
20260906123050 74 115 0.0 0.0 0.00 0.00 0.00 88 1012.4
20260906121550 74 115 0.0 0.0 0.00 0.00 0.00 88 1012.3
20260906120046 74 115 0.0 0.0 0.00 0.00 0.00 87 1012.1
20260906114548 74 115 0.0 0.0 0.00 0.00 0.00 87 1012.0
20260906113044 75 115 0.0 0.0 0.00 0.00 0.00 87 1012.0
20260906111548 75 115 0.0 0.0 0.00 0.00 0.00 86 1011.9
20260906110041 75 115 0.0 0.0 0.00 0.00 0.00 86 1011.7
20260906104539 75 115 0.0 0.0 0.00 0.00 0.00 86 1011.5
20260906103038 75 115 0.0 0.0 0.00 0.00 0.00 85 1011.6
20260906101536 76 115 0.0 0.0 0.00 0.00 0.00 85 1011.8
20260906100041 76 115 0.0 0.0 0.00 0.00 0.00 86 1011.7
20260906094533 76 115 0.0 0.0 0.00 0.00 0.00 86 1011.7
20260906093045 76 115 0.0 0.0 0.00 0.00 0.00 85 1011.5
20260906091529 76 115 0.0 0.0 0.00 0.00 0.00 84 1011.4
20260906090027 76 115 0.0 0.0 0.00 0.00 0.00 83 1011.4
20260906084526 76 115 0.0 0.0 0.00 0.00 0.00 82 1011.3
20260906083024 77 115 0.0 0.0 0.00 0.00 0.00 81 1011.1
20260906081542 77 115 0.0 0.0 0.00 0.00 0.00 81 1010.9
20260906080021 77 115 0.0 0.0 0.00 0.00 0.00 81 1010.8
20260906074519 78 115 0.0 0.0 0.00 0.00 0.00 80 1010.8
20260906073034 78 115 0.0 0.0 0.00 0.00 0.00 79 1010.9
20260906071515 79 115 0.0 0.0 0.00 0.00 0.00 79 1011.0
20260906070015 79 115 0.0 0.9 0.00 0.00 0.00 77 1011.0
20260906064512 80 115 0.0 1.7 0.00 0.00 0.00 77 1011.1
20260906063012 80 115 0.0 0.9 0.00 0.00 0.00 76 1011.1
20260906061511 80 115 0.0 1.7 0.00 0.00 0.00 75 1011.1
20260906060011 80 115 0.0 5.2 0.00 0.00 0.00 75 1011.2
20260906054512 79 175 0.0 0.0 0.00 0.00 0.00 75 1011.0
20260906053007 80 175 0.0 0.0 0.00 0.00 0.00 74 1011.0
20260906051504 80 175 0.0 0.0 0.00 0.00 0.00 74 1010.9
20260906050002 80 175 0.0 0.0 0.00 0.00 0.00 73 1010.9
20260906044502 81 175 0.0 0.0 0.00 0.00 0.00 73 1010.8
20260906043111 81 175 0.0 0.0 0.00 0.00 0.00 72 1010.9
20260906041559 81 175 0.0 0.0 0.00 0.00 0.00 71 1011.0
20260906040115 81 175 0.0 0.0 0.00 0.00 0.00 70 1010.9
20260906034559 82 175 0.0 0.0 0.00 0.00 0.00 70 1011.0
20260906033058 82 175 0.0 0.9 0.00 0.00 0.00 70 1010.8
20260906031607 83 175 0.0 0.0 0.00 0.00 0.00 69 1010.6
20260906030107 83 175 0.0 0.0 0.00 0.00 0.00 68 1010.6
20260906024556 84 175 0.0 0.0 0.00 0.00 0.00 67 1010.6
20260906023117 84 175 0.0 0.0 0.00 0.00 0.00 66 1010.4
20260906021555 85 175 0.0 0.0 0.00 0.00 0.00 64 1010.1
20260906020055 86 175 0.0 0.0 0.00 0.00 0.00 61 1009.9
20260906014617 87 175 0.0 0.0 0.00 0.00 0.00 59 1009.9
20260906013057 89 175 0.0 0.0 0.00 0.00 0.00 56 1009.7
20260906011556 91 175 0.0 0.0 0.00 0.00 0.00 54 1009.7
20260906010052 93 175 0.0 0.0 0.00 0.00 0.00 51 1009.6
20260906004607 96 175 0.0 1.7 0.00 0.00 0.00 49 1009.6
20260906003054 97 175 0.0 1.7 0.00 0.00 0.00 44 1009.5
20260906001550 98 175 0.0 4.3 0.00 0.00 0.00 41 1009.4
20260906000059 99 163 0.0 4.3 0.00 0.00 0.00 39 1009.4
20260905234555 100 168 0.0 5.2 0.00 0.00 0.00 41 1009.4
20260905233051 100 140 1.7 4.3 0.00 0.00 0.00 40 1009.2
20260905231548 101 134 1.7 5.2 0.00 0.00 0.00 39 1009.2
20260905230048 101 175 0.9 4.3 0.00 0.00 0.00 39 1009.2
20260905224600 102 143 0.9 5.2 0.00 0.00 0.00 39 1009.2
20260905223046 102 173 0.9 7.0 0.00 0.00 0.00 39 1009.3
20260905221558 102 163 2.6 7.0 0.00 0.00 0.00 39 1009.3
20260905220016 102 129 0.9 4.3 0.00 0.00 0.00 38 1009.4
20260905214608 102 159 3.5 7.8 0.00 0.00 0.00 38 1009.6
20260905213030 102 165 1.7 6.1 0.00 0.00 0.00 39 1009.7
20260905211618 102 172 2.6 6.1 0.00 0.00 0.00 40 1010.0
20260905210040 102 195 0.9 3.5 0.00 0.00 0.00 40 1010.2
20260905204505 101 142 4.3 8.7 0.00 0.00 0.00 40 1010.4
20260905203004 101 149 4.3 7.8 0.00 0.00 0.00 42 1010.6
20260905201502 100 36 0.9 4.3 0.00 0.00 0.00 43 1010.9
20260905200059 100 130 2.6 7.8 0.00 0.00 0.00 43 1011.2
20260905194556 101 144 1.7 9.6 0.00 0.00 0.00 41 1011.5
20260905193056 102 166 1.7 5.2 0.00 0.00 0.00 41 1011.5